User: anonymous   Login
Location: Unspecified
(0.0000°N, 0.0000°E)
Time: 02:17:05
(UTC+00:00)
Language:

Alexis - Orbit

View from above orbital plane
View from above orbital plane
View from above satellite
View from above satellite

Ground track
Ground track

The orbit data is extracted from the following two-line orbital elements,

1 22638U 93026A   20081.09575251 0.00000050  00000-0  17508-4 0    09
2 22638  69.9366  90.4861 0060003  32.2259 327.7741 14.34050236    01
Epoch (UTC): 21 March 2020 02:17:53
Eccentricity: 0.0060003
inclination: 69.9366°
perigee height: 735 km
apogee height: 821 km
right ascension of ascending node: 90.4861°
argument of perigee: 32.2259°
revolutions per day: 14.34050236
mean anomaly at epoch: 327.7741°
orbit number at epoch: 0

The dashed part of the orbit path shows where the satellite is in the earth's shadow,  

DLR